Hourly Weather Roundup
Issued by NWS Central Illinois

Home | Current Version | Previous Version | Text Only | Print | Product List | Glossary On
Versions: 1 2 3 4 5 6 7 8 9 10 11 12 13 14 15 16 17 18 19 20 21 22 23 24 25 26 27 28 29 30 31 32 33 34 35 36 37 38 39 40 41 42 43 44 45 46 47 48 49 50
000
NZUS43 KILX 121210
HWRILX

AREA WEATHER ROUNDUP
NATIONAL WEATHER SERVICE, LINCOLN IL
600 AM CST FRI FEB 12 2016


CITY           SKY/WX    TMP DP  RH WIND       PRES   REMARKS
BLOOMINGTON    CLOUDY    21  20  96 W8        30.19S WCI  11
6HR MIN TEMP:  19; 6HR MAX TEMP:  21; 6HR PCP: TRACE;

CHAMPAIGN      LGT SNOW  20  17  88 SW7       30.20R FOG     WCI  11
6HR MIN TEMP:  20; 6HR MAX TEMP:  22; 6HR PCP: TRACE;

DANVILLE       CLOUDY    19  13  76 SW5       30.16S WCI  13
6HR MIN TEMP:  17; 6HR MAX TEMP:  20;

DECATUR        LGT SNOW  20  17  88 SW5       30.21R FOG     WCI  13
6HR MIN TEMP:  20; 6HR MAX TEMP:  24; 6HR PCP: TRACE;

EFFINGHAM      LGT SNOW  23  21  91 CALM      30.24R
FLORA          LGT SNOW  24  22  89 CALM      30.23R
6HR MIN TEMP:  24; 6HR MAX TEMP:  27;

GALESBURG      CLOUDY    21  18  90 W8        30.21R WCI  11
JACKSONVILLE   CLOUDY    23  20  88 W3        30.23S
6HR MIN TEMP:  23; 6HR MAX TEMP:  26;

LACON          CLOUDY    22  15  75 W7        30.21R WCI  13
6HR MIN TEMP:  21; 6HR MAX TEMP:  22;

LAWRENCEVILLE  LGT SNOW  23  16  74 NW3       30.22S
6HR MIN TEMP:  23; 6HR MAX TEMP:  25; 6HR PCP: TRACE;

LITCHFIELD     CLOUDY    22  19  87 CALM      30.21S
$$


CITY           SKY/WX    TMP DP  RH WIND       PRES   REMARKS
LINCOLN        CLOUDY    23  21  92 W5        30.21S WCI  17
6HR MIN TEMP:  23; 6HR MAX TEMP:  25;

MACOMB         CLOUDY    21  19  92 W7        30.25R WCI  13
MATTOON        CLOUDY    19  14  81 CALM      30.20R HAZE
6HR MIN TEMP:  19; 6HR MAX TEMP:  21; 6HR PCP: TRACE;

MT CARMEL AP   LGT SNOW  25  16  68 N3        30.22S
OLNEY-NOBLE AP LGT SNOW  23  19  86 CALM      30.23R
PARIS          CLOUDY    21  15  76 CALM      30.21S
6HR MIN TEMP:  20; 6HR MAX TEMP:  22;

PEORIA         CLOUDY    22  17  81 NW5       30.22R WCI  16
6HR MIN TEMP:  22; 6HR MAX TEMP:  23; 6HR PCP: TRACE;

PONTIAC        MIX PCPN  23  19  87 W8        30.20R WCI  13
RANTOUL        LGT SNOW  22  18  85 SW3       30.19S
6HR MIN TEMP:  22; 6HR MAX TEMP:  23;

ROBINSON       LGT SNOW  21  17  82 CALM      30.23R
6HR MIN TEMP:  21; 6HR MAX TEMP:  23;

SPRINGFIELD    CLOUDY    21  18  88 W5        30.22F WCI  15
6HR MIN TEMP:  20; 6HR MAX TEMP:  26; 6HR PCP:  0.04;

TAYLORVILLE    CLOUDY    23  21  93 CALM      30.22S
$$

...REGIONAL REPORTS...


CITY           SKY/WX    TMP DP  RH WIND       PRES   REMARKS
CHICAGO O`HARE CLOUDY    19   7  59 W10       30.14F WCI   7
KANKAKEE       CLOUDY    22  17  81 W10       30.18S WCI  11
MOLINE         CLOUDY    22  16  78 W8        30.21R WCI  12
MOUNT STERLING MOCLDY    17  16  94 W3        30.22R
MOUNT VERNON   CLOUDY    25  19  80 NE6       30.22R WCI  18
PITTSFIELD     CLOUDY    22  20  91 CALM      30.24R
QUINCY         CLOUDY    20  17  88 NW3       30.23R
ROCKFORD       FLURRIES  18   8  65 NW13      30.18S WCI   5
$$


CITY           SKY/WX    TMP DP  RH WIND       PRES   REMARKS
BURLINGTON     CLOUDY    21  18  88 W5        30.22R WCI  15
CEDAR RAPIDS   CLOUDY    19  16  88 NW17      30.21R WCI   4
DES MOINES     FLURRIES  20  13  74 N16       30.29R WCI   6
KIRKSVILLE     CLOUDY    22  16  78 NW5       30.24R WCI  16
OTTUMWA        CLOUDY    20  18  92 W9        30.24R WCI   9
ST LOUIS       FLURRIES  27  21  80 CALM      30.23R
$$


CITY           SKY/WX    TMP DP  RH WIND       PRES   REMARKS
TERRE HAUTE    CLOUDY    22  13  68 CALM      30.20S
EVANSVILLE     LGT SNOW  26  20  77 W3        30.22R VSB 1
INDIANAPOLIS   CLOUDY    20   8  60 S3        30.16F
LAFAYETTE      CLOUDY    19  12  74 SW3       30.18F
MADISON        FLURRIES  14   6  70 NW8       30.13S WCI   3
MILWAUKEE      CLOUDY    18   2  49 NW10      30.11S WCI   6
$$





USA.gov is the U.S. government's official web portal to all federal, state and local government web resources and services.